Portada
METAR-TAF:

METAR-TAF

Aeropuertos :

Agri-Science Center

Chillicothe, Misuri, Estados Unidos

latitud: 39-49N, longitud: 093-35W, altitud: 234 m

Observación

El informe se hizo hace 1 hora y 4 minutos, a las 06:52 UTC
Viento calma
Temperatura 15°C
Humedad 88%
Presión 1025 hPa

METAR: KCDJ 310652Z AUTO 00000KT 15/13 A3026 RMK AO1 SLP239 T01500133

Hora: 02:56 (07:56 UTC)


TAF: falta

Observaciones y pronósticos meteorológicos de más de 4000 aeropuertos (mensajes METAR y TAF).

Los puntos amarillos y rojos representan las estaciones disponibles.

Ponga el ratón en el punto deseado para ver el nombre de la estación.

Haga clic para ver las observaciones y los pronósticos meteorológicos.

Para cambiar el mapa : haga clic en los botones verdes con una cruz de color negro para hacer un zoom, en el botón verde con un guión para alejar o en las flechas verdes para mapas adyacentes.


METAR-TAF: